Weather History for Gadsden, AL

Change the Weather History Date:

Monday, January 14, 2013

  Actual Average Record
Temperature  
Mean Temperature 44 °F -  
Max Temperature 48 °F 49 °F 76 °F (1932)
Min Temperature 39 °F 29 °F 12 °F (2011)
Degree Days  
Heating Degree Days 22    
Moisture  
Dew Point 41 °F    
Average Humidity 90    
Maximum Humidity 93    
Minimum Humidity 81    
Precipitation  
Precipitation 1.50 in - - ()
Sea Level Pressure  
Sea Level Pressure 30.15 in    
Wind  
Wind Speed 8 mph (North)    
Max Wind Speed 12 mph    
Max Gust Speed 16 mph    
Visibility 8 miles    
Events      
Averages and records for this station are not official NWS values.
T = Trace of Precipitation, MM = Missing Value Source: NWS Daily Summary

Daily Weather History Graph

Daily Weather History Graph

Search for Another Location

Airport:

Trip Planner

Search our weather history database for the weather conditions in past years. The results will help you decide how hot, cold, wet, or windy it might be!

Date:

Astronomy

Jan. 14, 2013 Rise Set
Actual Time 6:49 AM CST 4:57 PM CST
Civil Twilight 6:22 AM CST 5:24 PM CST
Nautical Twilight 5:51 AM CST 5:55 PM CST
Astronomical Twilight 5:21 AM CST 6:25 PM CST
Moon 8:33 AM CST (1/14) 8:30 PM CST (1/14)
Length of Visible Light 11h 02m
Length of Day
10h 08m
Waxing Crescent, 11% of the Moon is Illuminated
Jan 14
Waxing Crescent
Jan 18
First Quarter
Jan 26
Full
Feb 3
Last Quarter
Feb 10
New

Hourly Weather History & Observations

Time (CST) Temp. Windchill Dew Point Humidity Pressure Visibility Wind Dir Wind Speed Gust Speed Precip Events Conditions
12:15 AM 48.2 °F - 46.4 °F 93% 30.09 in 10.0 mi NW 9.2 mph - 0.01 in   Overcast
12:35 AM 48.2 °F - 44.6 °F 87% 30.09 in 10.0 mi NW 6.9 mph - 0.01 in   Overcast
12:55 AM 46.4 °F 42.9 °F 44.6 °F 93% 30.10 in 10.0 mi NW 6.9 mph - 0.01 in   Overcast
1:15 AM 46.4 °F 42.9 °F 42.8 °F 87% 30.10 in 10.0 mi NNW 6.9 mph - 0.01 in   Overcast
1:35 AM 46.4 °F 42.9 °F 42.8 °F 87% 30.10 in 4.0 mi NNW 6.9 mph - 0.02 in   Overcast
1:55 AM 46.4 °F 41.5 °F 42.8 °F 87% 30.11 in 6.0 mi NNW 10.4 mph - 0.03 in   Overcast
2:15 AM 46.4 °F 42.4 °F 42.8 °F 87% 30.10 in 10.0 mi NNW 8.1 mph - 0.01 in   Overcast
2:55 AM 46.4 °F 41.5 °F 42.8 °F 87% 30.09 in 10.0 mi North 10.4 mph - 0.01 in   Overcast
3:35 AM 46.4 °F 42.4 °F 42.8 °F 87% 30.10 in 10.0 mi North 8.1 mph - N/A   Overcast
4:15 AM 44.6 °F 39.7 °F 42.8 °F 93% 30.11 in 10.0 mi NNW 9.2 mph - N/A   Overcast
4:35 AM 44.6 °F 39.7 °F 42.8 °F 93% 30.11 in 10.0 mi NNW 9.2 mph - 0.01 in   Overcast
4:55 AM 44.6 °F 40.2 °F 42.8 °F 93% 30.10 in 9.0 mi North 8.1 mph - 0.02 in   Overcast
5:15 AM 44.6 °F 40.7 °F 42.8 °F 93% 30.11 in 10.0 mi North 6.9 mph - 0.02 in   Overcast
5:35 AM 44.6 °F 39.7 °F 41.0 °F 87% 30.12 in 10.0 mi NNW 9.2 mph - 0.04 in   Overcast
5:55 AM 44.6 °F 40.7 °F 42.8 °F 93% 30.13 in 7.0 mi North 6.9 mph - 0.09 in   Overcast
6:15 AM 44.6 °F 39.7 °F 42.8 °F 93% 30.12 in 10.0 mi NNE 9.2 mph - 0.01 in   Overcast
6:35 AM 44.6 °F 40.2 °F 42.8 °F 93% 30.15 in 10.0 mi North 8.1 mph - 0.02 in   Overcast
6:55 AM 44.6 °F 40.7 °F 42.8 °F 93% 30.16 in 7.0 mi North 6.9 mph - 0.02 in   Overcast
7:15 AM 44.6 °F 40.2 °F 42.8 °F 93% 30.17 in 3.0 mi North 8.1 mph - N/A   Overcast
7:35 AM 44.6 °F 41.4 °F 42.8 °F 93% 30.18 in 5.0 mi North 5.8 mph - 0.01 in   Overcast
7:55 AM 44.6 °F 39.7 °F 42.8 °F 93% 30.17 in 4.0 mi North 9.2 mph - 0.03 in   Overcast
8:15 AM 44.6 °F 41.4 °F 41.0 °F 87% 30.18 in 9.0 mi North 5.8 mph - N/A   Overcast
8:35 AM 44.6 °F 39.2 °F 41.0 °F 87% 30.16 in 10.0 mi NNE 10.4 mph - N/A   Overcast
8:55 AM 44.6 °F 39.2 °F 41.0 °F 87% 30.20 in 5.0 mi North 10.4 mph - 0.13 in   Mostly Cloudy
9:15 AM 44.6 °F 39.7 °F 41.0 °F 87% 30.18 in 7.0 mi NNE 9.2 mph - 0.13 in   Mostly Cloudy
9:35 AM 44.6 °F 40.7 °F 41.0 °F 87% 30.18 in 6.0 mi NNE 6.9 mph - 0.23 in   Overcast
9:55 AM 44.6 °F 41.4 °F 41.0 °F 87% 30.18 in 9.0 mi NNW 5.8 mph - 0.28 in   Overcast
10:15 AM 44.6 °F 40.2 °F 41.0 °F 87% 30.17 in 6.0 mi NNE 8.1 mph - 0.10 in   Overcast
10:35 AM 44.6 °F 41.4 °F 41.0 °F 87% 30.16 in 3.0 mi NNW 5.8 mph - 0.15 in   Overcast
10:55 AM 44.6 °F 39.7 °F 42.8 °F 93% 30.15 in 6.0 mi North 9.2 mph - 0.22 in   Overcast
11:35 AM 44.6 °F 42.2 °F 42.8 °F 93% 30.13 in 5.0 mi North 4.6 mph - 0.16 in   Mostly Cloudy
11:55 AM 44.6 °F 42.2 °F 42.8 °F 93% 30.12 in 4.0 mi North 4.6 mph - 0.20 in   Overcast
12:15 PM 44.6 °F 40.7 °F 42.8 °F 93% 30.12 in 5.0 mi NNE 6.9 mph - 0.03 in   Overcast
12:35 PM 44.6 °F 40.7 °F 42.8 °F 93% 30.10 in 7.0 mi NNE 6.9 mph - 0.07 in   Overcast
12:55 PM 44.6 °F 41.4 °F 42.8 °F 93% 30.11 in 9.0 mi NNE 5.8 mph - 0.09 in   Overcast
1:15 PM 44.6 °F 40.7 °F 42.8 °F 93% 30.10 in 10.0 mi North 6.9 mph - 0.02 in   Overcast
1:35 PM 46.4 °F 42.9 °F 42.8 °F 87% 30.09 in 8.0 mi NE 6.9 mph - 0.03 in   Overcast
1:55 PM 46.4 °F 42.9 °F 42.8 °F 87% 30.09 in 8.0 mi NNE 6.9 mph - 0.03 in   Overcast
2:15 PM 46.4 °F 42.9 °F 42.8 °F 87% 30.09 in 10.0 mi NNE 6.9 mph - N/A   Overcast
2:35 PM 46.4 °F 41.5 °F 42.8 °F 87% 30.13 in 9.0 mi NW 10.4 mph - 0.01 in   Overcast
2:55 PM 44.6 °F 38.8 °F 42.8 °F 93% 30.14 in 2.5 mi NNW 11.5 mph 16.1 mph 0.01 in   Overcast
3:15 PM 44.6 °F 38.8 °F 41.0 °F 87% 30.15 in 5.0 mi NNW 11.5 mph - 0.01 in   Overcast
3:35 PM 42.8 °F 37.0 °F 39.2 °F 87% 30.17 in 5.0 mi NNW 10.4 mph - 0.02 in   Overcast
3:55 PM 42.8 °F 38.0 °F 37.4 °F 81% 30.18 in 9.0 mi NNW 8.1 mph - 0.02 in   Overcast
4:15 PM 41.0 °F 35.2 °F 37.4 °F 87% 30.19 in 9.0 mi NNW 9.2 mph - N/A   Overcast
4:35 PM 39.2 °F 32.5 °F 35.6 °F 87% 30.21 in 9.0 mi NW 10.4 mph - N/A   Overcast
4:55 PM 39.2 °F 33.6 °F 35.6 °F 87% 30.22 in 10.0 mi NNW 8.1 mph - N/A   Overcast
5:15 PM 39.2 °F 34.2 °F 35.6 °F 87% 30.22 in 5.0 mi North 6.9 mph - 0.02 in   Overcast
5:35 PM 39.2 °F 35.0 °F 37.4 °F 93% 30.22 in 9.0 mi North 5.8 mph - 0.02 in   Overcast
5:55 PM 39.2 °F 34.2 °F 37.4 °F 93% 30.22 in 5.0 mi North 6.9 mph - 0.04 in   Overcast
6:15 PM 39.2 °F 35.0 °F 37.4 °F 93% 30.22 in 10.0 mi North 5.8 mph - 0.01 in   Overcast
6:35 PM 39.2 °F 33.6 °F 37.4 °F 93% 30.22 in 7.0 mi North 8.1 mph - 0.01 in   Overcast
6:55 PM 39.2 °F 34.2 °F 37.4 °F 93% 30.20 in 4.0 mi NNE 6.9 mph - 0.03 in   Overcast
7:15 PM 39.2 °F 33.0 °F 37.4 °F 93% 30.20 in 8.0 mi North 9.2 mph - 0.01 in   Overcast
7:35 PM 39.2 °F 35.0 °F 37.4 °F 93% 30.21 in 7.0 mi North 5.8 mph - 0.02 in   Overcast
7:55 PM 39.2 °F 35.9 °F 37.4 °F 93% 30.21 in 8.0 mi North 4.6 mph - 0.03 in   Overcast
8:15 PM 39.2 °F 33.6 °F 37.4 °F 93% 30.21 in 5.0 mi North 8.1 mph - 0.02 in   Overcast
8:35 PM 39.2 °F 34.2 °F 37.4 °F 93% 30.18 in 7.0 mi NNE 6.9 mph - 0.06 in   Overcast
8:55 PM 39.2 °F 34.2 °F 37.4 °F 93% 30.18 in 10.0 mi NNE 6.9 mph - 0.08 in   Overcast
9:15 PM 41.0 °F 37.1 °F 37.4 °F 87% 30.16 in 10.0 mi NNE 5.8 mph - 0.03 in   Overcast
9:35 PM 39.2 °F 33.6 °F 37.4 °F 93% 30.15 in 6.0 mi NNE 8.1 mph - 0.03 in   Overcast
9:55 PM 41.0 °F - 37.4 °F 87% 30.16 in 10.0 mi Calm Calm - 0.03 in   Overcast
10:15 PM 41.0 °F 38.0 °F 37.4 °F 87% 30.14 in 9.0 mi NE 4.6 mph - 0.01 in   Overcast
10:35 PM 41.0 °F - 39.2 °F 93% 30.14 in 10.0 mi Calm Calm - 0.02 in   Overcast
10:55 PM 41.0 °F 38.0 °F 39.2 °F 93% 30.12 in 8.0 mi NNE 4.6 mph - 0.07 in   Mostly Cloudy
11:15 PM 42.8 °F 39.3 °F 39.2 °F 87% 30.12 in 10.0 mi North 5.8 mph - 0.01 in   Partly Cloudy
11:35 PM 42.8 °F 39.3 °F 39.2 °F 87% 30.10 in 10.0 mi NE 5.8 mph - 0.03 in   Clear
11:55 PM 42.8 °F 38.6 °F 39.2 °F 87% 30.11 in 10.0 mi NE 6.9 mph - 0.03 in   Mostly Cloudy